Tracking 30995 objects as of 7-Jul-2025
HD Live streaming from Space Station
objects crossing your sky now

OPS 4682 DEB

Track OPS 4682 DEB now!
10-day predictions


NORAD ID: 38378
Int'l Code: 1965-027CF
Perigee: 1,229.8 km
Apogee: 1,284.3 km
Inclination: 90.2 °
Period: 110.5 minutes
Semi major axis: 7628 km
RCS: 0.0101 m2 (small)
Launch date: April 3, 1965
Source: United States (US)
Launch site: AIR FORCE WESTERN TEST RANGE (AFWTR)

Note: This is SATELLITE DEBRIS
Your satellite tracking list
Your tracking list is empty




NASA's NSSDC Master Catalog

Two Line Element Set (TLE):
1 38378U 65027CF  25184.66261445 -.00000673  00000-0 -21572-2 0  9990
2 38378  90.2463 331.6303 0035695  37.4541 322.9061 13.03108456573612
Source of the keplerian elements: AFSPC